Year,Month,Day,Hour,Minute,Value (Times are PST for temperature in C)
2013,07,01,00,00,20.90
2013,07,01,00,01,20.90
2013,07,01,00,02,20.90
2013,07,01,00,03,20.90
2013,07,01,00,04,20.90
2013,07,01,00,05,20.90
2013,07,01,00,06,20.80
2013,07,01,00,07,20.80
2013,07,01,00,08,20.80
2013,07,01,00,09,20.80
2013,07,01,00,10,20.80
2013,07,01,00,11,20.80
2013,07,01,00,12,20.70
2013,07,01,00,13,20.70
2013,07,01,00,14,20.70
2013,07,01,00,15,20.70
2013,07,01,00,16,20.70
2013,07,01,00,17,20.70
2013,07,01,00,18,20.70
2013,07,01,00,19,20.70
2013,07,01,00,20,20.70
2013,07,01,00,21,20.70
2013,07,01,00,22,20.60
2013,07,01,00,23,20.60
2013,07,01,00,24,20.60
2013,07,01,00,25,20.60
2013,07,01,00,26,20.60
2013,07,01,00,27,20.60
2013,07,01,00,28,20.60
2013,07,01,00,29,20.60
2013,07,01,00,30,20.60
2013,07,01,00,31,20.60
2013,07,01,00,32,20.60
2013,07,01,00,33,20.60
2013,07,01,00,34,20.60
2013,07,01,00,35,20.60
2013,07,01,00,36,20.60
2013,07,01,00,37,20.50
2013,07,01,00,38,20.50
2013,07,01,00,39,20.50
2013,07,01,00,40,20.40
2013,07,01,00,41,20.40
2013,07,01,00,42,20.30
2013,07,01,00,43,20.20
2013,07,01,00,44,20.00
2013,07,01,00,45,19.90
2013,07,01,00,46,19.80
2013,07,01,00,47,19.60
2013,07,01,00,48,19.50
2013,07,01,00,49,19.30
2013,07,01,00,50,19.20
2013,07,01,00,51,19.10
2013,07,01,00,52,19.00
2013,07,01,00,53,18.90
2013,07,01,00,54,18.80
2013,07,01,00,55,18.80
2013,07,01,00,56,18.70
2013,07,01,00,57,18.70
2013,07,01,00,58,18.70
2013,07,01,00,59,18.70
2013,07,01,01,00,18.70
2013,07,01,01,01,18.70
2013,07,01,01,02,18.70
2013,07,01,01,03,18.70
2013,07,01,01,04,18.70
2013,07,01,01,05,18.70
2013,07,01,01,06,18.60
2013,07,01,01,07,18.60
2013,07,01,01,08,18.50
2013,07,01,01,09,18.30
2013,07,01,01,10,18.20
2013,07,01,01,11,18.10
2013,07,01,01,12,18.00
2013,07,01,01,13,17.90
2013,07,01,01,14,17.90
2013,07,01,01,15,17.80
2013,07,01,01,16,17.80
2013,07,01,01,17,17.80
2013,07,01,01,18,17.80
2013,07,01,01,19,17.70
2013,07,01,01,20,17.70
2013,07,01,01,21,17.70
2013,07,01,01,22,17.70
2013,07,01,01,23,17.70
2013,07,01,01,24,17.70
2013,07,01,01,25,17.70
2013,07,01,01,26,17.70
2013,07,01,01,27,17.80
2013,07,01,01,28,17.80
2013,07,01,01,29,17.80
2013,07,01,01,30,17.80
2013,07,01,01,31,17.80
2013,07,01,01,32,17.90
2013,07,01,01,33,17.90
2013,07,01,01,34,17.90
2013,07,01,01,35,18.00
2013,07,01,01,36,18.10
2013,07,01,01,37,18.10
2013,07,01,01,38,18.20
2013,07,01,01,39,18.20
2013,07,01,01,40,18.20
2013,07,01,01,41,18.20
2013,07,01,01,42,18.30
2013,07,01,01,43,18.30
2013,07,01,01,44,18.30
2013,07,01,01,45,18.40
2013,07,01,01,46,18.40
2013,07,01,01,47,18.40
2013,07,01,01,48,18.40
2013,07,01,01,49,18.40
2013,07,01,01,50,18.40
2013,07,01,01,51,18.40
2013,07,01,01,52,18.40
2013,07,01,01,53,18.40
2013,07,01,01,54,18.40
2013,07,01,01,55,18.40
2013,07,01,01,56,18.40
2013,07,01,01,57,18.40
2013,07,01,01,58,18.50
2013,07,01,01,59,18.50
2013,07,01,02,00,18.60
2013,07,01,02,01,18.60
2013,07,01,02,02,18.60
2013,07,01,02,03,18.70
2013,07,01,02,04,18.70
2013,07,01,02,05,18.80
2013,07,01,02,06,18.80
2013,07,01,02,07,18.80
2013,07,01,02,08,18.80
2013,07,01,02,09,18.80
2013,07,01,02,10,18.80
2013,07,01,02,11,18.80
2013,07,01,02,12,18.80
2013,07,01,02,13,18.80
2013,07,01,02,14,18.80
2013,07,01,02,15,18.80
2013,07,01,02,16,18.80
2013,07,01,02,17,18.80
2013,07,01,02,18,18.80
2013,07,01,02,19,18.70
2013,07,01,02,20,18.70
2013,07,01,02,21,18.70
2013,07,01,02,22,18.70
2013,07,01,02,23,18.70
2013,07,01,02,24,18.70
2013,07,01,02,25,18.70
2013,07,01,02,26,18.70
2013,07,01,02,27,18.70
2013,07,01,02,28,18.70
2013,07,01,02,29,18.70
2013,07,01,02,30,18.70
2013,07,01,02,31,18.70
2013,07,01,02,32,18.60
2013,07,01,02,33,18.60
2013,07,01,02,34,18.70
2013,07,01,02,35,18.70
2013,07,01,02,36,18.60
2013,07,01,02,37,18.60
2013,07,01,02,38,18.60
2013,07,01,02,39,18.60
2013,07,01,02,40,18.60
2013,07,01,02,41,18.60
2013,07,01,02,42,18.60
2013,07,01,02,43,18.60
2013,07,01,02,44,18.60
2013,07,01,02,45,18.60
2013,07,01,02,46,18.60
2013,07,01,02,47,18.60
2013,07,01,02,48,18.60
2013,07,01,02,49,18.60
2013,07,01,02,50,18.60
2013,07,01,02,51,18.60
2013,07,01,02,52,18.60
2013,07,01,02,53,18.60
2013,07,01,02,54,18.60
2013,07,01,02,55,18.60
2013,07,01,02,56,18.50
2013,07,01,02,57,18.50
2013,07,01,02,58,18.40
2013,07,01,02,59,18.40
2013,07,01,03,00,18.30
2013,07,01,03,01,18.20
2013,07,01,03,02,18.10
2013,07,01,03,06,17.80
2013,07,01,03,07,17.70
2013,07,01,03,08,17.70
2013,07,01,03,09,17.60
2013,07,01,03,10,17.50
2013,07,01,03,11,17.50
2013,07,01,03,12,17.40
2013,07,01,03,13,17.40
2013,07,01,03,14,17.40
2013,07,01,03,15,17.40
2013,07,01,03,16,17.30
2013,07,01,03,17,17.30
2013,07,01,03,18,17.30
2013,07,01,03,19,17.20
2013,07,01,03,20,17.20
2013,07,01,03,21,17.20
2013,07,01,03,22,17.20
2013,07,01,03,23,17.20
2013,07,01,03,24,17.20
2013,07,01,03,25,17.20
2013,07,01,03,26,17.20
2013,07,01,03,27,17.20
2013,07,01,03,28,17.30
2013,07,01,03,29,17.40
2013,07,01,03,30,17.50
2013,07,01,03,31,17.60
2013,07,01,03,32,17.70
2013,07,01,03,33,17.70
2013,07,01,03,34,17.80
2013,07,01,03,35,17.80
2013,07,01,03,36,17.80
2013,07,01,03,37,17.80
2013,07,01,03,38,17.90
2013,07,01,03,39,17.90
2013,07,01,03,40,17.90
2013,07,01,03,41,17.90
2013,07,01,03,42,17.90
2013,07,01,03,43,17.90
2013,07,01,03,44,18.00
2013,07,01,03,45,18.00
2013,07,01,03,46,18.00
2013,07,01,03,47,18.00
2013,07,01,03,48,17.90
2013,07,01,03,49,17.90
2013,07,01,03,50,17.90
2013,07,01,03,51,17.90
2013,07,01,03,52,17.90
2013,07,01,03,53,17.90
2013,07,01,03,54,17.90
2013,07,01,03,55,17.90
2013,07,01,03,56,17.80
2013,07,01,03,57,17.80
2013,07,01,03,58,17.70
2013,07,01,03,59,17.70
2013,07,01,04,00,17.70
2013,07,01,04,01,17.60
2013,07,01,04,02,17.50
2013,07,01,04,03,17.40
2013,07,01,04,04,17.40
2013,07,01,04,05,17.30
2013,07,01,04,06,17.20
2013,07,01,04,07,17.10
2013,07,01,04,08,17.10
2013,07,01,04,09,17.00
2013,07,01,04,10,16.90
2013,07,01,04,11,16.90
2013,07,01,04,12,16.90
2013,07,01,04,13,16.80
2013,07,01,04,14,16.80
2013,07,01,04,15,16.80
2013,07,01,04,16,16.80
2013,07,01,04,17,16.80
2013,07,01,04,18,16.80
2013,07,01,04,19,16.80
2013,07,01,04,20,16.80
2013,07,01,04,21,16.80
2013,07,01,04,22,16.80
2013,07,01,04,23,16.80
2013,07,01,04,24,16.90
2013,07,01,04,25,16.90
2013,07,01,04,26,17.00
2013,07,01,04,27,17.00
2013,07,01,04,28,17.10
2013,07,01,04,29,17.10
2013,07,01,04,30,17.10
2013,07,01,04,31,17.20
2013,07,01,04,32,17.20
2013,07,01,04,33,17.20
2013,07,01,04,34,17.20
2013,07,01,04,35,17.20
2013,07,01,04,36,17.20
2013,07,01,04,37,17.20
2013,07,01,04,38,17.20
2013,07,01,04,39,17.20
2013,07,01,04,40,17.20
2013,07,01,04,41,17.20
2013,07,01,04,42,17.20
2013,07,01,04,43,17.20
2013,07,01,04,44,17.10
2013,07,01,04,45,17.10
2013,07,01,04,46,17.10
2013,07,01,04,47,17.00
2013,07,01,04,48,17.00
2013,07,01,04,49,16.90
2013,07,01,04,50,16.90
2013,07,01,04,51,16.80
2013,07,01,04,52,16.80
2013,07,01,04,53,16.80
2013,07,01,04,54,16.70
2013,07,01,04,55,16.70
2013,07,01,04,56,16.70
2013,07,01,04,57,16.70
2013,07,01,04,58,16.60
2013,07,01,04,59,16.60
2013,07,01,05,00,16.60
2013,07,01,05,01,16.60
2013,07,01,05,02,16.60
2013,07,01,05,03,16.50
2013,07,01,05,04,16.50
2013,07,01,05,05,16.50
2013,07,01,05,06,16.50
2013,07,01,05,07,16.50
2013,07,01,05,08,16.50
2013,07,01,05,09,16.50
2013,07,01,05,10,16.50
2013,07,01,05,11,16.50
2013,07,01,05,12,16.40
2013,07,01,05,13,16.40
2013,07,01,05,14,16.40
2013,07,01,05,15,16.40
2013,07,01,05,16,16.40
2013,07,01,05,17,16.40
2013,07,01,05,18,16.40
2013,07,01,05,19,16.30
2013,07,01,05,20,16.30
2013,07,01,05,21,16.30
2013,07,01,05,22,16.30
2013,07,01,05,23,16.30
2013,07,01,05,24,16.30
2013,07,01,05,25,16.30
2013,07,01,05,26,16.40
2013,07,01,05,27,16.40
2013,07,01,05,28,16.40
2013,07,01,05,29,16.50
2013,07,01,05,30,16.50
2013,07,01,05,31,16.50
2013,07,01,05,32,16.60
2013,07,01,05,33,16.60
2013,07,01,05,34,16.60
2013,07,01,05,35,16.70
2013,07,01,05,36,16.70
2013,07,01,05,37,16.70
2013,07,01,05,38,16.70
2013,07,01,05,39,16.70
2013,07,01,05,40,16.80
2013,07,01,05,41,16.80
2013,07,01,05,42,16.90
2013,07,01,05,43,16.90
2013,07,01,05,44,16.90
2013,07,01,05,45,16.90
2013,07,01,05,46,17.00
2013,07,01,05,47,17.00
2013,07,01,05,48,17.00
2013,07,01,05,49,17.10
2013,07,01,05,50,17.10
2013,07,01,05,51,17.10
2013,07,01,05,52,17.20
2013,07,01,05,53,17.20
2013,07,01,05,54,17.20
2013,07,01,05,55,17.20
2013,07,01,05,56,17.30
2013,07,01,05,57,17.30
2013,07,01,05,58,17.30
2013,07,01,05,59,17.30
2013,07,01,06,00,17.40
2013,07,01,06,01,17.40
2013,07,01,06,02,17.50
2013,07,01,06,03,17.50
2013,07,01,06,04,17.60
2013,07,01,06,05,17.60
2013,07,01,06,06,17.70
2013,07,01,06,07,17.70
2013,07,01,06,08,17.70
2013,07,01,06,09,17.80
2013,07,01,06,10,17.80
2013,07,01,06,11,17.80
2013,07,01,06,12,17.90
2013,07,01,06,13,17.90
2013,07,01,06,14,18.00
2013,07,01,06,15,18.10
2013,07,01,06,16,18.10
2013,07,01,06,17,18.20
2013,07,01,06,18,18.20
2013,07,01,06,19,18.30
2013,07,01,06,20,18.20
2013,07,01,06,21,18.20
2013,07,01,06,22,18.10
2013,07,01,06,23,18.00
2013,07,01,06,24,17.90
2013,07,01,06,25,17.80
2013,07,01,06,26,17.70
2013,07,01,06,27,17.60
2013,07,01,06,28,17.60
2013,07,01,06,29,17.50
2013,07,01,06,30,17.40
2013,07,01,06,31,17.40
2013,07,01,06,32,17.30
2013,07,01,06,33,17.20
2013,07,01,06,34,17.20
2013,07,01,06,35,17.20
2013,07,01,06,36,17.10
2013,07,01,06,37,17.10
2013,07,01,06,38,17.10
2013,07,01,06,39,17.20
2013,07,01,06,40,17.20
2013,07,01,06,41,17.20
2013,07,01,06,42,17.20
2013,07,01,06,43,17.20
2013,07,01,06,44,17.20
2013,07,01,06,45,17.30
2013,07,01,06,46,17.30
2013,07,01,06,47,17.30
2013,07,01,06,48,17.40
2013,07,01,06,49,17.40
2013,07,01,06,50,17.50
2013,07,01,06,51,17.60
2013,07,01,06,52,17.60
2013,07,01,06,53,17.60
2013,07,01,06,54,17.70
2013,07,01,06,55,17.70
2013,07,01,06,56,17.70
2013,07,01,06,57,17.80
2013,07,01,06,58,17.80
2013,07,01,06,59,17.90
2013,07,01,07,00,18.00
2013,07,01,07,01,18.00
2013,07,01,07,02,18.10
2013,07,01,07,03,18.20
2013,07,01,07,04,18.20
2013,07,01,07,05,18.30
2013,07,01,07,06,18.30
2013,07,01,07,07,18.40
2013,07,01,07,08,18.50
2013,07,01,07,09,18.60
2013,07,01,07,10,18.70
2013,07,01,07,11,18.80
2013,07,01,07,12,18.90
2013,07,01,07,13,19.00
2013,07,01,07,14,19.10
2013,07,01,07,15,19.10
2013,07,01,07,16,19.20
2013,07,01,07,17,19.30
2013,07,01,07,18,19.30
2013,07,01,07,19,19.30
2013,07,01,07,20,19.40
2013,07,01,07,21,19.40
2013,07,01,07,22,19.50
2013,07,01,07,23,19.50
2013,07,01,07,24,19.60
2013,07,01,07,25,19.60
2013,07,01,07,26,19.60
2013,07,01,07,27,19.70
2013,07,01,07,28,19.70
2013,07,01,07,29,19.80
2013,07,01,07,30,19.90
2013,07,01,07,31,20.00
2013,07,01,07,32,20.10
2013,07,01,07,33,20.10
2013,07,01,07,34,20.20
2013,07,01,07,35,20.20
2013,07,01,07,36,20.20
2013,07,01,07,37,20.20
2013,07,01,07,38,20.20
2013,07,01,07,39,20.30
2013,07,01,07,40,20.30
2013,07,01,07,41,20.30
2013,07,01,07,42,20.30
2013,07,01,07,43,20.30
2013,07,01,07,44,20.40
2013,07,01,07,45,20.40
2013,07,01,07,46,20.40
2013,07,01,07,47,20.40
2013,07,01,07,48,20.40
2013,07,01,07,49,20.40
2013,07,01,07,50,20.40
2013,07,01,07,51,20.40
2013,07,01,07,52,20.40
2013,07,01,07,53,20.40
2013,07,01,07,54,20.40
2013,07,01,07,55,20.30
2013,07,01,07,56,20.30
2013,07,01,07,57,20.30
2013,07,01,07,58,20.30
2013,07,01,07,59,20.30
2013,07,01,08,00,20.30
2013,07,01,08,01,20.30
2013,07,01,08,02,20.30
2013,07,01,08,03,20.30
2013,07,01,08,04,20.30
2013,07,01,08,05,20.30
2013,07,01,08,06,20.40
2013,07,01,08,07,20.40
2013,07,01,08,08,20.40
2013,07,01,08,09,20.40
2013,07,01,08,10,20.50
2013,07,01,08,11,20.50
2013,07,01,08,12,20.50
2013,07,01,08,13,20.50
2013,07,01,08,14,20.50
2013,07,01,08,15,20.50
2013,07,01,08,16,20.60
2013,07,01,08,17,20.60
2013,07,01,08,18,20.60
2013,07,01,08,19,20.70
2013,07,01,08,20,20.70
2013,07,01,08,21,20.70
2013,07,01,08,22,20.70
2013,07,01,08,23,20.70
2013,07,01,08,24,20.70
2013,07,01,08,25,20.70
2013,07,01,08,26,20.80
2013,07,01,08,27,20.80
2013,07,01,08,28,20.90
2013,07,01,08,29,20.90
2013,07,01,08,30,21.00
2013,07,01,08,31,21.00
2013,07,01,08,32,21.00
2013,07,01,08,33,21.00
2013,07,01,08,34,21.00
2013,07,01,08,35,21.00
2013,07,01,08,36,21.00
2013,07,01,08,37,21.00
2013,07,01,08,38,21.00
2013,07,01,08,39,21.00
2013,07,01,08,40,21.00
2013,07,01,08,41,20.90
2013,07,01,08,42,20.90
2013,07,01,08,43,20.90
2013,07,01,08,44,21.00
2013,07,01,08,45,21.00
2013,07,01,08,46,21.00
2013,07,01,08,47,21.10
2013,07,01,08,48,21.00
2013,07,01,08,49,21.00
2013,07,01,08,50,21.00
2013,07,01,08,51,21.00
2013,07,01,08,52,21.00
2013,07,01,08,53,21.00
2013,07,01,08,54,21.00
2013,07,01,08,55,21.00
2013,07,01,08,56,20.90
2013,07,01,08,57,20.90
2013,07,01,08,58,20.80
2013,07,01,08,59,20.80
2013,07,01,09,00,20.80
2013,07,01,09,01,20.80
2013,07,01,09,02,20.70
2013,07,01,09,03,20.70
2013,07,01,09,04,20.70
2013,07,01,09,05,20.70
2013,07,01,09,06,20.70
2013,07,01,09,07,20.70
2013,07,01,09,08,20.80
2013,07,01,09,09,20.80
2013,07,01,09,10,20.80
2013,07,01,09,11,20.80
2013,07,01,09,12,20.80
2013,07,01,09,13,20.80
2013,07,01,09,14,20.80
2013,07,01,09,15,20.80
2013,07,01,09,16,20.80
2013,07,01,09,17,20.80
2013,07,01,09,18,20.90
2013,07,01,09,19,21.00
2013,07,01,09,20,21.00
2013,07,01,09,21,21.10
2013,07,01,09,22,21.20
2013,07,01,09,23,21.30
2013,07,01,09,24,21.40
2013,07,01,09,25,21.50
2013,07,01,09,26,21.50
2013,07,01,09,27,21.50
2013,07,01,09,28,21.40
2013,07,01,09,29,21.50
2013,07,01,09,30,21.60
2013,07,01,09,31,21.60
2013,07,01,09,32,21.70
2013,07,01,09,33,21.70
2013,07,01,09,34,21.90
2013,07,01,09,35,21.90
2013,07,01,09,36,21.90
2013,07,01,09,37,21.90
2013,07,01,09,38,21.90
2013,07,01,09,39,21.90
2013,07,01,09,40,21.90
2013,07,01,09,41,21.90
2013,07,01,09,42,21.90
2013,07,01,09,43,21.90
2013,07,01,09,44,21.90
2013,07,01,09,45,21.90
2013,07,01,09,46,21.90
2013,07,01,09,47,21.90
2013,07,01,09,48,21.90
2013,07,01,09,49,21.80
2013,07,01,09,50,21.80
2013,07,01,09,51,21.80
2013,07,01,09,52,21.90
2013,07,01,09,53,22.00
2013,07,01,09,54,22.10
2013,07,01,09,55,22.10
2013,07,01,09,56,22.20
2013,07,01,09,57,22.30
2013,07,01,09,58,22.30
2013,07,01,09,59,22.40
2013,07,01,10,00,22.50
2013,07,01,10,01,22.60
2013,07,01,10,02,22.60
2013,07,01,10,03,22.60
2013,07,01,10,04,22.60
2013,07,01,10,05,22.50
2013,07,01,10,06,22.50
2013,07,01,10,07,22.50
2013,07,01,10,08,22.50
2013,07,01,10,09,22.50
2013,07,01,10,10,22.40
2013,07,01,10,11,22.40
2013,07,01,10,12,22.40
2013,07,01,10,13,22.30
2013,07,01,10,14,22.30
2013,07,01,10,15,22.30
2013,07,01,10,16,22.30
2013,07,01,10,17,22.30
2013,07,01,10,18,22.30
2013,07,01,10,19,22.40
2013,07,01,10,20,22.40
2013,07,01,10,21,22.40
2013,07,01,10,22,22.40
2013,07,01,10,23,22.40
2013,07,01,10,24,22.30
2013,07,01,10,25,22.30
2013,07,01,10,26,22.30
2013,07,01,10,27,22.30
2013,07,01,10,28,22.30
2013,07,01,10,29,22.30
2013,07,01,10,30,22.30
2013,07,01,10,31,22.30
2013,07,01,10,32,22.30
2013,07,01,10,33,22.30
2013,07,01,10,34,22.30
2013,07,01,10,35,22.30
2013,07,01,10,36,22.30
2013,07,01,10,37,22.30
2013,07,01,10,38,22.30
2013,07,01,10,39,22.40
2013,07,01,10,40,22.40
2013,07,01,10,41,22.50
2013,07,01,10,42,22.60
2013,07,01,10,43,22.70
2013,07,01,10,44,22.70
2013,07,01,10,45,22.80
2013,07,01,10,46,22.80
2013,07,01,10,47,22.80
2013,07,01,10,48,22.80
2013,07,01,10,49,22.80
2013,07,01,10,50,22.70
2013,07,01,10,51,22.70
2013,07,01,10,52,22.80
2013,07,01,10,53,22.80
2013,07,01,10,54,22.90
2013,07,01,10,55,22.90
2013,07,01,10,56,23.00
2013,07,01,10,57,23.00
2013,07,01,10,58,23.10
2013,07,01,10,59,23.10
2013,07,01,11,00,23.10
2013,07,01,11,01,23.00
2013,07,01,11,02,22.90
2013,07,01,11,03,22.80
2013,07,01,11,04,22.70
2013,07,01,11,05,22.60
2013,07,01,11,06,22.50
2013,07,01,11,07,22.30
2013,07,01,11,08,22.30
2013,07,01,11,09,22.20
2013,07,01,11,10,22.20
2013,07,01,11,11,22.10
2013,07,01,11,12,22.10
2013,07,01,11,13,22.10
2013,07,01,11,14,22.20
2013,07,01,11,15,22.20
2013,07,01,11,16,22.20
2013,07,01,11,17,22.20
2013,07,01,11,18,22.20
2013,07,01,11,19,22.20
2013,07,01,11,20,22.20
2013,07,01,11,21,22.20
2013,07,01,11,22,22.20
2013,07,01,11,23,22.20
2013,07,01,11,24,22.20
2013,07,01,11,25,22.20
2013,07,01,11,26,22.20
2013,07,01,11,27,22.20
2013,07,01,11,28,22.20
2013,07,01,11,29,22.20
2013,07,01,11,30,22.30
2013,07,01,11,31,22.40
2013,07,01,11,32,22.50
2013,07,01,11,33,22.60
2013,07,01,11,34,22.70
2013,07,01,11,35,22.80
2013,07,01,11,36,22.90
2013,07,01,11,37,23.00
2013,07,01,11,38,23.10
2013,07,01,11,39,23.10
2013,07,01,11,40,23.10
2013,07,01,11,41,23.10
2013,07,01,11,42,23.10
2013,07,01,11,43,23.00
2013,07,01,11,44,22.90
2013,07,01,11,45,22.90
2013,07,01,11,46,22.80
2013,07,01,11,47,22.70
2013,07,01,11,48,22.60
2013,07,01,11,49,22.60
2013,07,01,11,50,22.50
2013,07,01,11,51,22.50
2013,07,01,11,52,22.50
2013,07,01,11,53,22.60
2013,07,01,11,54,22.60
2013,07,01,11,55,22.60
2013,07,01,11,56,22.70
2013,07,01,11,57,22.70
2013,07,01,11,58,22.80
2013,07,01,11,59,22.80
2013,07,01,12,00,22.80
2013,07,01,12,01,22.80
2013,07,01,12,02,22.90
2013,07,01,12,03,22.90
2013,07,01,12,04,23.00
2013,07,01,12,05,23.00
2013,07,01,12,06,23.10
2013,07,01,12,07,23.10
2013,07,01,12,08,23.20
2013,07,01,12,09,23.20
2013,07,01,12,10,23.20
2013,07,01,12,11,23.30
2013,07,01,12,12,23.30
2013,07,01,12,13,23.40
2013,07,01,12,14,23.50
2013,07,01,12,15,23.60
2013,07,01,12,16,23.70
2013,07,01,12,17,23.80
2013,07,01,12,18,24.00
2013,07,01,12,19,24.10
2013,07,01,12,20,24.10
2013,07,01,12,21,24.20
2013,07,01,12,22,24.20
2013,07,01,12,23,24.30
2013,07,01,12,24,24.30
2013,07,01,12,25,24.40
2013,07,01,12,26,24.50
2013,07,01,12,27,24.60
2013,07,01,12,28,24.70
2013,07,01,12,29,24.70
2013,07,01,12,30,24.70
2013,07,01,12,31,24.70
2013,07,01,12,32,24.60
2013,07,01,12,33,24.50
2013,07,01,12,34,24.40
2013,07,01,12,35,24.40
2013,07,01,12,36,24.40
2013,07,01,12,37,24.30
2013,07,01,12,38,24.30
2013,07,01,12,39,24.30
2013,07,01,12,40,24.40
2013,07,01,12,41,24.40
2013,07,01,12,42,24.40
2013,07,01,12,43,24.40
2013,07,01,12,44,24.50
2013,07,01,12,45,24.50
2013,07,01,12,46,24.60
2013,07,01,12,47,24.60
2013,07,01,12,48,24.70
2013,07,01,12,49,24.80
2013,07,01,12,50,24.90
2013,07,01,12,51,25.00
2013,07,01,12,52,25.10
2013,07,01,12,53,25.30
2013,07,01,12,54,25.40
2013,07,01,12,55,25.40
2013,07,01,12,56,25.40
2013,07,01,12,57,25.40
2013,07,01,12,58,25.40
2013,07,01,12,59,25.40
2013,07,01,13,00,25.40
2013,07,01,13,01,25.40
2013,07,01,13,02,25.40
2013,07,01,13,03,25.30
2013,07,01,13,04,25.30
2013,07,01,13,05,25.20
2013,07,01,13,06,25.10
2013,07,01,13,07,25.10
2013,07,01,13,08,25.10
2013,07,01,13,09,25.00
2013,07,01,13,10,25.00
2013,07,01,13,11,25.00
2013,07,01,13,12,25.00
2013,07,01,13,13,25.10
2013,07,01,13,14,25.20
2013,07,01,13,15,25.30
2013,07,01,13,16,25.40
2013,07,01,13,17,25.50
2013,07,01,13,18,25.60
2013,07,01,13,19,25.70
2013,07,01,13,20,25.80
2013,07,01,13,21,25.90
2013,07,01,13,22,26.00
2013,07,01,13,23,26.10
2013,07,01,13,24,26.20
2013,07,01,13,25,26.10
2013,07,01,13,26,26.10
2013,07,01,13,27,26.10
2013,07,01,13,28,26.10
2013,07,01,13,29,25.90
2013,07,01,13,30,25.80
2013,07,01,13,31,25.80
2013,07,01,13,32,25.70
2013,07,01,13,33,25.70
2013,07,01,13,34,25.70
2013,07,01,13,35,25.70
2013,07,01,13,36,25.70
2013,07,01,13,37,25.80
2013,07,01,13,38,25.90
2013,07,01,13,39,26.00
2013,07,01,13,40,26.00
2013,07,01,13,41,26.00
2013,07,01,13,42,26.00
2013,07,01,13,43,26.00
2013,07,01,13,44,25.90
2013,07,01,13,45,25.90
2013,07,01,13,46,25.80
2013,07,01,13,47,25.80
2013,07,01,13,48,25.90
2013,07,01,13,49,26.00
2013,07,01,13,50,26.10
2013,07,01,13,51,26.20
2013,07,01,13,52,26.30
2013,07,01,13,53,26.30
2013,07,01,13,54,26.30
2013,07,01,13,55,26.30
2013,07,01,13,56,26.30
2013,07,01,13,57,26.40
2013,07,01,13,58,26.50
2013,07,01,13,59,26.60
2013,07,01,14,00,26.70
2013,07,01,14,01,26.70
2013,07,01,14,02,26.80
2013,07,01,14,03,26.90
2013,07,01,14,04,27.00
2013,07,01,14,05,27.00
2013,07,01,14,06,27.00
2013,07,01,14,07,27.00
2013,07,01,14,08,27.00
2013,07,01,14,09,26.80
2013,07,01,14,10,26.70
2013,07,01,14,11,26.60
2013,07,01,14,12,26.60
2013,07,01,14,13,26.70
2013,07,01,14,14,26.70
2013,07,01,14,15,26.80
2013,07,01,14,16,26.80
2013,07,01,14,17,26.90
2013,07,01,14,18,27.00
2013,07,01,14,19,27.00
2013,07,01,14,20,27.00
2013,07,01,14,21,27.00
2013,07,01,14,22,27.10
2013,07,01,14,23,27.10
2013,07,01,14,24,27.10
2013,07,01,14,25,27.10
2013,07,01,14,26,27.10
2013,07,01,14,27,27.00
2013,07,01,14,28,27.00
2013,07,01,14,29,27.00
2013,07,01,14,30,27.00
2013,07,01,14,31,27.10
2013,07,01,14,32,27.00
2013,07,01,14,33,27.00
2013,07,01,14,34,27.10
2013,07,01,14,35,27.10
2013,07,01,14,36,27.20
2013,07,01,14,37,27.20
2013,07,01,14,38,27.20
2013,07,01,14,39,27.20
2013,07,01,14,40,27.10
2013,07,01,14,41,27.00
2013,07,01,14,42,27.00
2013,07,01,14,43,27.10
2013,07,01,14,44,27.10
2013,07,01,14,45,27.20
2013,07,01,14,46,27.20
2013,07,01,14,47,27.30
2013,07,01,14,48,27.30
2013,07,01,14,49,27.30
2013,07,01,14,50,27.30
2013,07,01,14,51,27.30
2013,07,01,14,52,27.20
2013,07,01,14,53,27.20
2013,07,01,14,54,27.20
2013,07,01,14,55,27.30
2013,07,01,14,56,27.40
2013,07,01,14,57,27.50
2013,07,01,14,58,27.50
2013,07,01,14,59,27.40
2013,07,01,15,00,27.30
2013,07,01,15,01,27.30
2013,07,01,15,02,27.40
2013,07,01,15,03,27.40
2013,07,01,15,04,27.40
2013,07,01,15,05,27.50
2013,07,01,15,06,27.60
2013,07,01,15,07,27.60
2013,07,01,15,08,27.70
2013,07,01,15,09,27.70
2013,07,01,15,10,27.70
2013,07,01,15,11,27.60
2013,07,01,15,12,27.60
2013,07,01,15,13,27.50
2013,07,01,15,14,27.50
2013,07,01,15,15,27.60
2013,07,01,15,16,27.60
2013,07,01,15,17,27.70
2013,07,01,15,18,27.80
2013,07,01,15,19,27.80
2013,07,01,15,20,27.80
2013,07,01,15,21,27.80
2013,07,01,15,22,27.80
2013,07,01,15,23,27.80
2013,07,01,15,24,27.90
2013,07,01,15,25,27.90
2013,07,01,15,26,28.00
2013,07,01,15,27,28.00
2013,07,01,15,28,28.10
2013,07,01,15,29,28.20
2013,07,01,15,30,28.20
2013,07,01,15,31,28.20
2013,07,01,15,32,28.20
2013,07,01,15,33,28.20
2013,07,01,15,34,28.20
2013,07,01,15,35,28.20
2013,07,01,15,36,28.30
2013,07,01,15,37,28.30
2013,07,01,15,38,28.30
2013,07,01,15,39,28.30
2013,07,01,15,40,28.30
2013,07,01,15,41,28.20
2013,07,01,15,42,28.20
2013,07,01,15,43,28.20
2013,07,01,15,44,28.20
2013,07,01,15,45,28.20
2013,07,01,15,46,28.20
2013,07,01,15,47,28.20
2013,07,01,15,48,28.30
2013,07,01,15,49,28.30
2013,07,01,15,50,28.40
2013,07,01,15,51,28.40
2013,07,01,15,52,28.40
2013,07,01,15,53,28.40
2013,07,01,15,54,28.50
2013,07,01,15,55,28.50
2013,07,01,15,56,28.40
2013,07,01,15,57,28.30
2013,07,01,15,58,28.10
2013,07,01,15,59,28.10
2013,07,01,16,00,28.00
2013,07,01,16,01,28.10
2013,07,01,16,02,28.10
2013,07,01,16,03,28.10
2013,07,01,16,04,28.20
2013,07,01,16,05,28.20
2013,07,01,16,06,28.20
2013,07,01,16,07,28.10
2013,07,01,16,08,28.10
2013,07,01,16,09,28.10
2013,07,01,16,10,28.20
2013,07,01,16,11,28.20
2013,07,01,16,12,28.20
2013,07,01,16,13,28.30
2013,07,01,16,14,28.30
2013,07,01,16,15,28.30
2013,07,01,16,16,28.30
2013,07,01,16,17,28.30
2013,07,01,16,18,28.30
2013,07,01,16,19,28.30
2013,07,01,16,20,28.30
2013,07,01,16,21,28.20
2013,07,01,16,22,28.30
2013,07,01,16,23,28.30
2013,07,01,16,24,28.30
2013,07,01,16,25,28.40
2013,07,01,16,26,28.40
2013,07,01,16,27,28.30
2013,07,01,16,28,28.30
2013,07,01,16,29,28.30
2013,07,01,16,30,28.40
2013,07,01,16,31,28.40
2013,07,01,16,32,28.40
2013,07,01,16,33,28.40
2013,07,01,16,34,28.30
2013,07,01,16,35,28.30
2013,07,01,16,36,28.20
2013,07,01,16,37,28.20
2013,07,01,16,38,28.30
2013,07,01,16,39,28.30
2013,07,01,16,40,28.30
2013,07,01,16,41,28.30
2013,07,01,16,42,28.30
2013,07,01,16,43,28.30
2013,07,01,16,44,28.30
2013,07,01,16,45,28.30
2013,07,01,16,46,28.30
2013,07,01,16,47,28.40
2013,07,01,16,48,28.30
2013,07,01,16,49,28.30
2013,07,01,16,50,28.20
2013,07,01,16,51,28.20
2013,07,01,16,52,28.20
2013,07,01,16,53,28.30
2013,07,01,16,54,28.30
2013,07,01,16,55,28.30
2013,07,01,16,56,28.30
2013,07,01,16,57,28.20
2013,07,01,16,58,28.10
2013,07,01,16,59,28.00
2013,07,01,17,00,28.00
2013,07,01,17,01,28.10
2013,07,01,17,02,28.10
2013,07,01,17,03,28.10
2013,07,01,17,04,28.20
2013,07,01,17,05,28.30
2013,07,01,17,06,28.40
2013,07,01,17,07,28.50
2013,07,01,17,08,28.60
2013,07,01,17,09,28.70
2013,07,01,17,10,28.80
2013,07,01,17,11,28.80
2013,07,01,17,12,28.90
2013,07,01,17,13,28.90
2013,07,01,17,14,29.00
2013,07,01,17,15,29.00
2013,07,01,17,16,29.00
2013,07,01,17,17,29.00
2013,07,01,17,18,29.00
2013,07,01,17,19,29.00
2013,07,01,17,20,29.00
2013,07,01,17,21,29.00
2013,07,01,17,22,29.00